Location: Buckeye Ditch
(40.9104°N, 122.9517°W)
Time: 19:30:26
(UTC+00:00)

BlueWalker 3 - Pass Details

Date: 26 June 2024
Orbit: 480 x 491 km, 53.2° (Epoch: 24 July)

Event Time Altitude Azimuth Distance (km) Brightness Sun altitude
Rises 07:33:02 0° 314° (NW) 2,540 6.3 -25.0°
Reaches altitude 10° 07:35:38 10° 332° (NNW) 1,658 5.5 -25.1°
Maximum altitude 07:38:28 20° 21° (NNE) 1,162 4.4 -25.2°
Enters shadow 07:40:52 12° 66° (ENE) 1,533 4.5 -25.3°
